[[{"header":{"parameterUnit":"m.s-1","parameterCategory":1,"la1":30.2991,"la2":30.254,"lo1":-89.0895,"lo2":-89.0444,"dy":0.0017,"dx":0.0017,"nx":28,"ny":28,"refTime":"2024-10-20T09:00:00:Z","depth":0,"parameterNumber":2,"parameterNumberName":"U-component_of_WINDS"},"data":[0,0,0,0,0,0,0,0,0,0,0,0,0,0,0,0,0,0,0,0,0,0,0,0,0,0,0,0,0,0,0,0,0,0,0,0,0,0,0,0,0,0,0,0,0,0,0,0,0,0,0,0,0,0,0,0,0,0,-1.5349,-1.5349,0,-1.5374,-1.5375,-1.5375,-1.5302,-1.5299,-1.5297,-1.5295,-1.5324,-1.5326,-1.5329,0,0,0,0,0,0,0,0,0,0,0,0,0,-1.5237,-1.524,-1.5348,-1.5349,-1.5349,-1.5374,-1.5375,-1.5375,-1.5302,-1.5299,-1.5297,-1.5294,-1.5323,-1.5326,-1.533,0,0,0,0,0,0,0,0,0,0,0,0,0,-1.5277,-1.524,-1.5348,-1.5316,-1.5313,-1.5374,-1.5375,-1.5375,-1.5303,-1.5299,-1.5296,-1.5293,-1.5322,-1.5326,-1.533,-1.5425,0,0,-1.5343,-1.5345,0,0,0,0,0,0,0,0,-1.5274,-1.5281,-1.532,-1.5318,-1.5315,-1.5331,-1.5346,-1.5392,-1.5303,-1.5307,-1.5295,-1.5291,-1.5329,-1.5333,-1.5345,-1.5426,-1.5427,-1.5344,-1.5346,-1.5348,-1.5349,0,0,0,0,0,0,0,-1.5272,-1.5279,-1.5359,-1.5321,-1.5318,-1.53,-1.5302,-1.5354,-1.5337,-1.5306,-1.5301,-1.5305,-1.5327,-1.5341,-1.5345,-1.5428,-1.5343,-1.5347,-1.535,-1.5352,-1.5589,-1.5592,0,0,0,0,0,0,-1.5273,-1.5277,-1.5358,-1.536,-1.5286,-1.5305,-1.5307,-1.533,-1.5336,-1.5334,-1.5308,-1.5301,-1.5335,-1.534,-1.5346,-1.5458,-1.5348,-1.5352,-1.5355,-1.5585,-1.5589,-1.5593,0,0,0,0,0,0,-1.5271,-1.5281,-1.5357,-1.5317,-1.5325,-1.531,-1.5336,-1.5332,-1.5346,-1.5337,-1.5334,-1.5325,-1.5333,-1.534,-1.5406,-1.5458,-1.5354,-1.5358,-1.5581,-1.5586,-1.5591,-1.5684,0,0,0,0,0,0,-1.5268,-1.5281,-1.5316,-1.5318,-1.5328,-1.5417,-1.534,-1.5335,-1.5353,-1.5345,-1.5353,-1.5351,-1.5331,-1.54,-1.541,-1.5462,-1.5361,-1.5576,-1.5583,-1.559,-1.5676,-1.5692,-1.5705,0,0,0,0,0,-1.5264,-1.5342,-1.5319,-1.5329,-1.5372,-1.542,-1.5425,-1.54,-1.5358,-1.5394,-1.5388,-1.535,-1.545,-1.5407,-1.5418,-1.5473,-1.5573,-1.5581,-1.5589,-1.567,-1.5689,-1.5705,0,0,0,0,0,0,-1.5347,-1.5341,-1.5316,-1.5396,-1.5409,-1.5407,-1.5452,-1.5421,-1.5447,-1.5438,-1.5406,-1.5409,-1.5481,-1.5483,-1.5435,-1.5565,-1.5504,-1.5515,-1.5562,-1.558,-1.5594,-1.5594,-1.5365,0,0,0,0,0,-1.5375,-1.5413,-1.5406,-1.5478,-1.5485,-1.5468,-1.5487,-1.5467,-1.5479,-1.5484,-1.5483,-1.5497,-1.5532,-1.5555,-1.5586,-1.5675,-1.5676,-1.5718,-1.5732,-1.5744,-1.5755,-1.5803,-1.5822,-1.5621,-1.5621,-1.5621,0,0,-1.5432,-1.5434,-1.546,-1.5494,-1.5502,-1.5543,-1.5473,-1.5519,-1.555,-1.5491,-1.5554,-1.5554,-1.5567,-1.5645,-1.5679,-1.5649,-1.5811,-1.5755,-1.5765,-1.5769,-1.5814,-1.5833,-1.585,-1.5626,-1.5625,-1.5625,0,0,-1.5559,-1.5563,-1.5624,-1.5632,-1.5644,-1.5632,-1.5646,-1.5649,-1.5647,-1.5708,-1.5665,-1.5701,-1.5761,-1.5773,-1.5786,-1.5916,-1.5883,-1.5927,-1.6004,-1.6052,-1.6068,-1.6081,-1.613,-1.6147,-1.5937,-1.5937,-1.5937,0,-1.563,-1.569,-1.5659,-1.5709,-1.5725,-1.5673,-1.5734,-1.5744,-1.5766,-1.5779,-1.5744,-1.5818,-1.5823,-1.5904,-1.5935,-1.5947,-1.5964,-1.5927,-1.6067,-1.6081,-1.6094,-1.6139,-1.6157,-1.5942,-1.5942,-1.5941,-1.5941,0,-1.5777,-1.5819,-1.5866,-1.5889,-1.591,-1.5965,-1.5944,-1.5969,-1.5946,-1.5937,-1.6001,-1.6005,-1.6037,-1.6053,-1.6031,-1.6131,-1.6112,-1.6073,-1.6012,-1.6119,-1.6161,-1.6178,-1.595,-1.5948,-1.5947,-1.5945,0,0,-1.5959,-1.5962,-1.598,-1.599,-1.5998,-1.6031,-1.6083,-1.6113,-1.6137,-1.6153,-1.6197,-1.6248,-1.6212,-1.6228,-1.6206,-1.6247,-1.6352,-1.6203,-1.6202,-1.6232,-1.6463,-1.6495,-1.6516,-1.6328,-1.6331,-1.6334,-1.6463,0,-1.6086,-1.6177,-1.615,-1.6241,-1.6281,-1.623,-1.6276,-1.6287,-1.628,-1.6312,-1.6304,-1.6342,-1.6289,-1.6299,-1.6337,-1.6331,-1.6398,-1.6321,-1.6371,-1.6373,-1.6373,-1.6538,-1.6571,-1.6693,-1.6479,-1.6482,-1.6484,0,-1.6246,-1.6269,-1.6364,-1.6366,-1.6381,-1.6423,-1.6449,-1.648,-1.6491,-1.6482,-1.6499,-1.6469,-1.6522,-1.6458,-1.653,-1.6479,-1.6497,-1.6497,-1.6501,-1.6507,-1.6438,-1.6551,-1.6731,-1.6751,-1.6509,-1.6507,-1.6505,0,-1.6373,-1.6426,-1.649,-1.65,-1.6503,-1.6534,-1.6537,-1.6544,-1.6563,-1.6585,-1.6598,-1.6626,-1.6642,-1.6664,-1.6642,-1.6598,-1.6719,-1.6653,-1.6715,-1.6716,-1.6746,-1.6745,-1.6935,-1.6753,-1.6753,-1.6752,-1.6752,0,-1.6519,-1.658,-1.6547,-1.6588,-1.6654,-1.6622,-1.6689,-1.6686,-1.6693,-1.6732,-1.6688,-1.6726,-1.6693,-1.6728,-1.6711,-1.6775,-1.6782,-1.6778,-1.6773,-1.6783,-1.6784,-1.6797,-1.679,-1.6757,-1.6756,-1.6755,-1.6754,0,-1.6674,-1.6654,-1.6721,-1.6717,-1.6718,-1.6768,-1.6765,-1.6802,-1.6791,-1.6841,-1.685,-1.6833,-1.6872,-1.6851,-1.6891,-1.6879,-1.6963,-1.6945,-1.696,-1.6956,-1.702,-1.7016,-1.7228,-1.7255,-1.7053,-1.7055,-1.7057,0,-1.677,-1.6815,-1.6817,-1.6839,-1.6845,-1.6882,-1.6901,-1.6871,-1.6893,-1.6908,-1.6944,-1.6978,-1.7005,-1.7068,-1.706,-1.709,-1.7075,-1.7147,-1.7079,-1.7088,-1.7079,-1.7078,-1.7083,-1.7162,-1.7164,-1.7166,-1.7167,0,-1.6943,-1.6931,-1.696,-1.6987,-1.7011,-1.7031,-1.7047,-1.7068,-1.7037,-1.7064,-1.7103,-1.7123,-1.7163,-1.7199,-1.7224,-1.7227,-1.7194,-1.7188,-1.7205,-1.7217,-1.7225,-1.7224,-1.7,-1.7184,-1.7183,-1.7181,-1.718,-1.718,-1.7073,-1.7112,-1.7119,-1.7153,-1.7161,-1.7177,-1.7212,-1.7204,-1.7236,-1.7266,-1.7245,-1.7291,-1.73,-1.7331,-1.7339,-1.7374,-1.7346,-1.7369,-1.7375,-1.7383,-1.7392,-1.7216,-1.7379,-1.7378,-1.7378,-1.7377,-1.7377,0,-1.7246,-1.7248,-1.728,-1.7303,-1.7331,-1.7293,-1.7309,-1.7335,-1.7375,-1.7386,-1.7412,-1.7457,-1.749,-1.7484,-1.7514,-1.7544,-1.753,-1.7554,-1.7553,-1.7554,-1.7415,-1.7399,-1.7565,-1.7565,-1.7565,-1.7565,-1.7565,-1.7565,-1.734,-1.7404,-1.7392,-1.746,-1.7461,-1.7505,-1.7517,-1.7532,-1.754,-1.7591,-1.7619,-1.7614,-1.7618,-1.7648,-1.7678,-1.7675,-1.7689,-1.772,-1.7712,-1.7583,-1.7564,-1.7546,-1.7531,-1.7723,-1.7723,-1.7848,-1.7849,-1.785]},{"header":{"parameterUnit":"m.s-1","parameterCategory":1,"la1":30.2991,"la2":30.254,"lo1":-89.0895,"lo2":-89.0444,"dy":0.0017,"dx":0.0017,"nx":28,"ny":28,"refTime":"2024-10-20T09:00:00:Z","depth":0,"parameterNumber":3,"parameterNumberName":"V-component_of_WINDS"},"data":[0,0,0,0,0,0,0,0,0,0,0,0,0,0,0,0,0,0,0,0,0,0,0,0,0,0,0,0,0,0,0,0,0,0,0,0,0,0,0,0,0,0,0,0,0,0,0,0,0,0,0,0,0,0,0,0,0,0,-3.171,-3.1711,0,-3.1767,-3.1768,-3.1769,-3.1725,-3.1723,-3.1722,-3.172,-3.1774,-3.1777,-3.1781,0,0,0,0,0,0,0,0,0,0,0,0,0,-3.156,-3.1563,-3.171,-3.1711,-3.1712,-3.1767,-3.1768,-3.1769,-3.1726,-3.1723,-3.1721,-3.1719,-3.1773,-3.1777,-3.1781,0,0,0,0,0,0,0,0,0,0,0,0,0,-3.1622,-3.1564,-3.171,-3.1697,-3.1696,-3.1767,-3.1768,-3.1769,-3.1726,-3.1723,-3.172,-3.1718,-3.1772,-3.1777,-3.1781,-3.1867,0,0,-3.1796,-3.1798,0,0,0,0,0,0,0,0,-3.1618,-3.1627,-3.1698,-3.1698,-3.1697,-3.1736,-3.1735,-3.1802,-3.1727,-3.1715,-3.172,-3.1716,-3.1764,-3.1769,-3.1786,-3.187,-3.1872,-3.1796,-3.1799,-3.1801,-3.1803,0,0,0,0,0,0,0,-3.1614,-3.1625,-3.1733,-3.1699,-3.1699,-3.1687,-3.1693,-3.1747,-3.1754,-3.1715,-3.1712,-3.172,-3.1763,-3.1781,-3.1787,-3.1873,-3.1796,-3.1801,-3.1804,-3.1805,-3.203,-3.2033,0,0,0,0,0,0,-3.1612,-3.1621,-3.1731,-3.1734,-3.165,-3.1692,-3.1698,-3.1727,-3.1753,-3.1755,-3.1722,-3.1718,-3.1774,-3.1781,-3.1788,-3.1891,-3.1801,-3.1806,-3.1809,-3.2027,-3.2031,-3.2034,0,0,0,0,0,0,-3.1608,-3.1622,-3.1729,-3.1677,-3.169,-3.1697,-3.173,-3.1729,-3.1748,-3.1759,-3.1759,-3.174,-3.1773,-3.1782,-3.1848,-3.1892,-3.1808,-3.1812,-3.2024,-3.2028,-3.2033,-3.2097,0,0,0,0,0,0,-3.1604,-3.1621,-3.1654,-3.1678,-3.1693,-3.1789,-3.1732,-3.1732,-3.1756,-3.1751,-3.1776,-3.1777,-3.1771,-3.1841,-3.1853,-3.1897,-3.1816,-3.202,-3.2026,-3.2031,-3.2091,-3.2103,-3.2114,0,0,0,0,0,-3.1599,-3.1669,-3.1656,-3.167,-3.1735,-3.1791,-3.18,-3.1793,-3.176,-3.1793,-3.1801,-3.1776,-3.1886,-3.1849,-3.1861,-3.1908,-3.2017,-3.2024,-3.2031,-3.2086,-3.2101,-3.2113,0,0,0,0,0,0,-3.1649,-3.1672,-3.1658,-3.1738,-3.1764,-3.1784,-3.1826,-3.1809,-3.1842,-3.1836,-3.1824,-3.183,-3.19,-3.191,-3.1869,-3.1992,-3.1946,-3.1956,-3.1983,-3.1998,-3.2009,-3.2005,-3.182,0,0,0,0,0,-3.1669,-3.1715,-3.1732,-3.1801,-3.1814,-3.1818,-3.1842,-3.1835,-3.186,-3.187,-3.1882,-3.1906,-3.1946,-3.1972,-3.2009,-3.2092,-3.2096,-3.213,-3.2141,-3.2151,-3.2159,-3.2204,-3.2219,-3.2057,-3.2057,-3.2057,0,0,-3.1712,-3.173,-3.1759,-3.1811,-3.183,-3.1876,-3.1827,-3.1878,-3.1911,-3.1877,-3.1941,-3.1951,-3.1977,-3.2052,-3.2086,-3.2063,-3.2205,-3.216,-3.2167,-3.2171,-3.2213,-3.2228,-3.2242,-3.2062,-3.2061,-3.206,0,0,-3.1813,-3.1831,-3.1891,-3.1911,-3.1941,-3.1943,-3.1957,-3.1981,-3.1986,-3.2051,-3.2026,-3.2065,-3.2134,-3.2154,-3.2173,-3.2282,-3.2261,-3.2294,-3.2354,-3.2398,-3.241,-3.2422,-3.2461,-3.2475,-3.2303,-3.2303,-3.2303,0,-3.1861,-3.1931,-3.1923,-3.1977,-3.2,-3.1973,-3.2033,-3.2052,-3.2091,-3.2108,-3.2082,-3.2168,-3.2184,-3.2263,-3.229,-3.2306,-3.2322,-3.2292,-3.2409,-3.2421,-3.2431,-3.2468,-3.2483,-3.2307,-3.2307,-3.2306,-3.2306,0,-3.1989,-3.2038,-3.2082,-3.2123,-3.2152,-3.2208,-3.2208,-3.2237,-3.2228,-3.2232,-3.2298,-3.2316,-3.2357,-3.2375,-3.2365,-3.2453,-3.2438,-3.2411,-3.2364,-3.245,-3.2485,-3.2499,-3.2313,-3.2311,-3.231,-3.2309,0,0,-3.2123,-3.216,-3.2176,-3.2194,-3.2225,-3.2262,-3.2316,-3.2358,-3.2383,-3.2411,-3.2456,-3.2516,-3.2491,-3.2513,-3.2505,-3.2543,-3.2629,-3.2511,-3.2512,-3.2533,-3.2727,-3.2748,-3.2765,-3.2615,-3.2618,-3.262,-3.2725,0,-3.2225,-3.2322,-3.2318,-3.2408,-3.2452,-3.2427,-3.2475,-3.2498,-3.2504,-3.2542,-3.2547,-3.259,-3.2554,-3.2567,-3.2604,-3.2611,-3.2668,-3.2603,-3.2656,-3.2658,-3.2651,-3.2783,-3.2804,-3.2903,-3.2739,-3.2741,-3.2743,0,-3.2358,-3.2393,-3.2488,-3.2513,-3.2531,-3.2574,-3.2612,-3.2649,-3.2674,-3.2676,-3.2701,-3.2687,-3.2741,-3.2693,-3.2767,-3.2723,-3.2744,-3.2751,-3.2755,-3.2759,-3.2706,-3.2791,-3.2934,-3.2949,-3.2764,-3.2762,-3.2761,0,-3.2446,-3.2516,-3.2583,-3.2599,-3.2629,-3.266,-3.2674,-3.2697,-3.2723,-3.2755,-3.2771,-3.2809,-3.2829,-3.2858,-3.2855,-3.282,-3.293,-3.2882,-3.2932,-3.2933,-3.2957,-3.2955,-3.3106,-3.297,-3.297,-3.297,-3.2969,0,-3.2561,-3.2621,-3.2623,-3.2664,-3.2729,-3.2723,-3.2787,-3.2797,-3.2818,-3.286,-3.284,-3.2879,-3.2871,-3.291,-3.2907,-3.2969,-3.2978,-3.2981,-3.2979,-3.2983,-3.2983,-3.2996,-3.299,-3.2974,-3.2973,-3.2972,-3.2971,0,-3.2671,-3.2675,-3.2746,-3.2769,-3.2776,-3.2824,-3.2843,-3.2881,-3.2886,-3.2938,-3.295,-3.2957,-3.3001,-3.3001,-3.3051,-3.3049,-3.3125,-3.3116,-3.3117,-3.3115,-3.3166,-3.3161,-3.3331,-3.3353,-3.3203,-3.3204,-3.3206,0,-3.2744,-3.279,-3.2819,-3.2846,-3.2862,-3.2906,-3.2932,-3.2927,-3.2955,-3.2988,-3.3022,-3.3066,-3.31,-3.3172,-3.318,-3.3219,-3.321,-3.3267,-3.3216,-3.3218,-3.3211,-3.3209,-3.3213,-3.3277,-3.3279,-3.328,-3.3281,0,-3.2874,-3.2874,-3.2914,-3.2954,-3.2987,-3.3018,-3.3046,-3.3069,-3.3067,-3.3099,-3.3146,-3.3173,-3.3225,-3.3268,-3.3305,-3.3317,-3.3299,-3.3297,-3.3311,-3.3315,-3.3314,-3.3316,-3.3145,-3.3293,-3.3292,-3.3291,-3.329,-3.329,-3.2968,-3.3008,-3.3035,-3.3079,-3.3101,-3.3128,-3.3166,-3.3175,-3.3214,-3.3258,-3.3252,-3.3304,-3.3328,-3.3376,-3.3392,-3.3432,-3.3412,-3.3432,-3.3437,-3.3442,-3.3448,-3.3308,-3.3438,-3.3438,-3.3438,-3.3437,-3.3437,0,-3.3097,-3.3114,-3.3155,-3.3197,-3.3232,-3.3213,-3.3244,-3.3274,-3.332,-3.3345,-3.338,-3.3433,-3.3475,-3.3487,-3.3527,-3.3556,-3.3549,-3.3567,-3.3565,-3.3568,-3.3463,-3.3447,-3.3572,-3.3572,-3.3572,-3.3572,-3.3572,-3.3572,-3.3169,-3.3235,-3.3238,-3.3314,-3.3329,-3.3382,-3.3401,-3.3426,-3.3446,-3.3507,-3.3542,-3.355,-3.357,-3.3611,-3.3649,-3.3651,-3.3666,-3.3688,-3.3687,-3.3589,-3.3575,-3.3562,-3.3548,-3.3692,-3.3692,-3.3789,-3.379,-3.379]}]]